Regional Weather Roundup
Issued by NWS

Home | Current Version | Previous Version | Text Only | Print | Product List | Glossary On
Versions: 1 2 3 4 5 6 7 8 9 10 11 12 13 14 15 16 17 18 19 20 21 22 23 24 25 26 27 28 29 30 31 32 33 34 35 36 37 38 39 40 41 42 43 44 45 46 47 48 49 50
000
ASUS43 KOAX 241502
RWRNE

WEATHER ROUNDUP FOR NEBRASKA
NATIONAL WEATHER SERVICE OMAHA NE
900 AM CST FRI FEB 24 2017

NOTES: SATELLITE DATA IS BEING USED TO AUGMENT CLOUD COVER ABOVE
       12000 FEET.
       "FAIR" INDICATES FEW OR NO CLOUDS BELOW 12,000 FEET WITH NO
       SIGNIFICANT WEATHER AND/OR OBSTRUCTIONS TO VISIBILITY.

  * THESE STATIONS DO NOT REPORT WEATHER SUCH AS RAIN...SNOW OR FOG.

NEZ001>004-019>022-054>056-241600-
NEBRASKA PANHANDLE

CITY           SKY/WX    TMP DP  RH WIND       PRES   REMARKS
SCOTTSBLUFF    CLOUDY    20  14  77 CALM      29.99R
ALLIANCE       CLOUDY    19  16  88 N14       29.97R FOG     WCI   6
CHADRON        LGT SNOW  21  18  88 NE12      30.04R FOG     WCI   9
KIMBALL        LGT SNOW  18  17  96 N9        29.93R WCI   7
SIDNEY         LGT SNOW  19  16  88 N12       29.95R FOG     WCI   7
$$

NEZ057>060-069>072-079>082-241600-
SOUTHWEST NEBRASKA

CITY           SKY/WX    TMP DP  RH WIND       PRES   REMARKS
NORTH PLATTE   LGT SNOW  24  18  77 N21G26    29.96R WCI   9
IMPERIAL       LGT SNOW  23  18  81 N18       29.96R WCI   9
LEXINGTON      LGT SNOW  23  20  87 N22G31    29.92R VSB 1   WCI   8
MCCOOK         LGT SNOW  25  22  88 N23       29.92R FOG     WCI  10
OGALLALA       CLOUDY    25  19  77 N21G28    29.97R WCI  10
$$

NEZ005>010-023>029-035>040-094-241600-
NORTH CENTRAL NEBRASKA

CITY           SKY/WX    TMP DP  RH WIND       PRES   REMARKS
VALENTINE      CLOUDY    18  12  77 N18G25    30.04R WCI   2
AINSWORTH      CLOUDY    18  15  87 N26       30.01S WCI   0
BROKEN BOW     FOG       20  16  84 N32G41    29.93R VSB 1   WCI   1
O`NEILL        CLOUDY    20  16  85 N24G33    29.96R WCI   3
ORD            HAZE      20  14  77 N24G35    29.92R VSB 1   WCI   3
THEDFORD       CLOUDY    20  17  88 N20G26    29.98R WCI   5
$$

NEZ041-046>049-061>064-073>077-083>087-241600-
SOUTH CENTRAL NEBRASKA

CITY           SKY/WX    TMP DP  RH WIND       PRES   REMARKS
GRAND ISLAND   FOG       20  19  96 N28G35    29.88R VSB 1/2 WCI   2
AURORA         SNOW      22  20  93 N17G26    29.85R VSB 1/2 WCI   8
HASTINGS       SNOW      22  19  89 N24G36    29.86R VSB 1/2 WCI   5
HEBRON         LGT SNOW  27  24  91 N14G22    29.83R WCI  15
HOLDREGE         N/A     22  20  90 N17G26    29.88R WCI   8
KEARNEY *      CLOUDY    21  18  86 N17       29.89R VSB 3/4 WCI   7
YORK           HVY SNOW  23  23 100 N16G26    29.82R VSB 1/4 WCI  10
$$

NEZ011>018-030>034-042>045-241600-
NORTHEAST NEBRASKA

CITY           SKY/WX    TMP DP  RH WIND       PRES   REMARKS
NORFOLK        FOG       21  17  84 N18G31    29.86R VSB 1   WCI   6
ALBION         LGT SNOW  22  17  79 N22G29    29.88R WCI   6
BLAIR          LGT SNOW  26  23  89 N18G33    29.76R WCI  12
FREMONT        LGT SNOW  26  24  95 N16G23    29.80R VSB 3/4 WCI  13
TEKAMAH        FOG       25  22  88 N31G38    29.80R VSB 1/4 WCI   8
WAYNE            N/A     22  20  91 N21G28    29.86S WCI   7
$$

NEZ050>053-065>068-078-088>093-241600-
SOUTHEAST NEBRASKA

CITY           SKY/WX    TMP DP  RH WIND       PRES   REMARKS
LINCOLN        LGT SNOW  27  24  89 N30G38    29.79R FOG     WCI  11
OMAHA EPPLEY   FRZ RAIN  27  22  81 N25G35    29.75R WCI  12
BEATRICE       MIX PCPN  28  27  94 N20G26    29.78R WCI  15
FALLS CITY     CLOUDY    33  30  88 N16G22    29.69R WCI  23
NEBRASKA CITY  MIX PCPN  30  30  99 N21G29    29.72R WCI  18
PLATTSMOUTH    CLOUDY    28  24  83 N13G24    29.74R FOG     WCI  18
$$

NEZ044-045-051>053-067-241600-
OMAHA AREA

CITY           SKY/WX    TMP DP  RH WIND       PRES   REMARKS
OMAHA EPPLEY   FRZ RAIN  27  22  81 N25G35    29.75R WCI  12
BLAIR          LGT SNOW  26  23  89 N18G33    29.76R WCI  12
FREMONT        LGT SNOW  26  24  95 N16G23    29.80R VSB 3/4 WCI  13
MILLARD        LGT SNOW  28  25  86 N16G28    29.78R WCI  17
OFFUTT AFB     FRZ RAIN  28  24  86 N13       29.75R WCI  17
PLATTSMOUTH    CLOUDY    28  24  83 N13G24    29.74R FOG     WCI  18
WAHOO          LGT SNOW  26  24  92 N22G30    29.79R VSB 1   WCI  12
$$



USA.gov is the U.S. government's official web portal to all federal, state and local government web resources and services.